Weather in Andriivka

Ukraine / Donetsk Region     48˚01′21″N   37˚03′24″E
temp.,
°C
wind,
m/s
gust,
m/s
humid.,
%
clouds,
%
prec.,
mm/h
press.,
hPa
HPBL,
m
2 december, wed
wed223:00+1˚e71279100 0.0 1026537
02:00+1˚ese61180100 0.0 1027582
05:00e61176100 0.0 1027530
08:00+1˚ese71179100 0.0 1027602
11:00+2˚ese61073100 0.0 1028616
14:00+2˚ese697092 0.0 1027650
17:00e697589 0.0 1028591
20:00+1˚ese6107894 0.0 1028561
3 december, thu
thu323:00+1˚ese61080100 0.0 1028535
02:00ese61088100 0.1 1028476
05:00+1˚ese5992100 1.8 1028503
08:00+1˚ese61191100 3.0 1028476
11:00+1˚ese5990100 0.3 1028513
14:00+2˚ese5884100 0.4 1028540
17:00+2˚ese5985100 0.0 1028571
20:00+2˚ese51085100 0.0 1028553
4 december, fri
fri423:00+2˚ese51086100 0.0 1028481
02:00+1˚ese61085100 0.0 1028478
05:00+1˚ese6108599 0.0 1028485
08:00+1˚ese7108499 0.0 1028531
11:00+3˚ese6978100 0.0 1028617
14:00+3˚ese6977100 0.0 1028637
17:00+2˚ese61079100 0.0 1029631
20:00+1˚ese61179100 0.0 1029668
5 december, sat
sat523:00+1˚ese61077100 0.0 1029549
02:00e6107399 0.0 1030534
05:00−1˚e6117385 0.0 1030507
08:00−2˚e7127455 0.0 1030520
11:00+1˚e712632 0.0 1030560
14:00+2˚e712541 0.0 1030665
17:00−1˚e614480 0.0 1031559
20:00−2˚e714490 0.0 1032523
6 december, sun
sun623:00−3˚e613490 0.0 1032490
02:00−4˚e613500 0.0 1032452
05:00−4˚e614500 0.0 1032448
08:00−4˚e714470 0.0 1033475
11:00−1˚e814350 0.0 1033556
14:00e712330 0.0 1032591
17:00−3˚e614430 0.0 1032458
20:00−4˚e614500 0.0 1033466